Weather History for Brownsville, TX

Change the Weather History Date:

Wednesday, December 5, 2012

  Actual Average Record
Temperature  
Mean Temperature 69 °F 64 °F  
Max Temperature 79 °F 74 °F 94 °F (1977)
Min Temperature 58 °F 55 °F 26 °F (1886)
Degree Days  
Heating Degree Days 0 4  
Month to date heating degree days 0 20  
Since 1 July heating degree days 3 74  
Cooling Degree Days 4 3  
Month to date cooling degree days 45 17  
Year to date cooling degree days 4705 3962  
Growing Degree Days 18 (Base 50)    
Moisture  
Dew Point 65 °F    
Average Humidity 78    
Maximum Humidity 100    
Minimum Humidity 56    
Precipitation  
Precipitation 0.30 in 0.04 in 1.19 in (1944)
Month to date precipitation 0.30 0.21  
Year to date precipitation 21.38 26.50  
Sea Level Pressure  
Sea Level Pressure 30.11 in    
Wind  
Wind Speed 7 mph (North)    
Max Wind Speed 18 mph    
Max Gust Speed 23 mph    
Visibility 10 miles    
Events Rain , Thunderstorm    
T = Trace of Precipitation, MM = Missing Value Source: NWS Daily Summary

Daily Weather History Graph

Daily Weather History Graph

Search for Another Location

Airport:

Trip Planner

Search our weather history database for the weather conditions in past years. The results will help you decide how hot, cold, wet, or windy it might be!

Date:

Astronomy

Dec. 05, 2012 Rise Set
Actual Time 7:02 AM CST 5:38 PM CST
Civil Twilight 6:37 AM CST 6:03 PM CST
Nautical Twilight 6:09 AM CST 6:31 PM CST
Astronomical Twilight 5:41 AM CST 6:59 PM CST
Moon 11:59 PM CST (12/5) 11:53 AM CST (12/5)
Length of Visible Light 11h 25m
Length of Day
10h 35m
Waning Gibbous, 59% of the Moon is Illuminated
Dec 5
Waning Gibbous
Dec 6
Last Quarter
Dec 13
New
Dec 19
First Quarter
Dec 28
Full

Hourly Weather History & Observations

Time (CST) Temp. Dew Point Humidity Pressure Visibility Wind Dir Wind Speed Gust Speed Precip Events Conditions
12:53 AM 72.0 °F 71.1 °F 97% 30.10 in 10.0 mi SW 3.5 mph - N/A   Partly Cloudy
1:51 AM 69.8 °F 69.8 °F 100% 30.12 in 9.0 mi NW 18.4 mph 23.0 mph N/A Thunderstorm Mostly Cloudy
1:53 AM 69.1 °F 66.9 °F 93% 30.12 in 9.0 mi NW 12.7 mph 23.0 mph 0.00 in Rain , Thunderstorm Light Thunderstorms and Rain
2:08 AM 66.2 °F 66.2 °F 100% 30.11 in 1.8 mi ESE 9.2 mph 20.7 mph 0.20 in Rain , Thunderstorm Heavy Thunderstorms and Rain
2:15 AM 68.0 °F 66.2 °F 94% 30.12 in 3.0 mi Calm Calm - 0.30 in Rain , Thunderstorm Light Thunderstorms and Rain
2:24 AM 68.0 °F 66.2 °F 94% 30.12 in 10.0 mi Calm Calm - 0.30 in Rain , Thunderstorm Light Thunderstorms and Rain
2:53 AM 68.0 °F 66.9 °F 96% 30.12 in 10.0 mi SSW 4.6 mph - 0.30 in Thunderstorm Scattered Clouds
3:14 AM 66.2 °F 66.2 °F 100% 30.10 in 10.0 mi ENE 3.5 mph - N/A   Scattered Clouds
3:53 AM 66.9 °F 66.9 °F 100% 30.11 in 10.0 mi Calm Calm - N/A   Mostly Cloudy
4:41 AM 66.2 °F 66.2 °F 100% 30.11 in 10.0 mi NNW 3.5 mph - N/A   Overcast
4:53 AM 66.9 °F 66.9 °F 100% 30.11 in 10.0 mi NNW 6.9 mph - N/A   Overcast
5:00 AM 66.2 °F 66.2 °F 100% 30.11 in 10.0 mi NNW 8.1 mph - N/A   Overcast
5:25 AM 66.2 °F 66.2 °F 100% 30.12 in 10.0 mi NNW 5.8 mph - N/A   Scattered Clouds
5:34 AM 68.0 °F 66.2 °F 94% 30.12 in 10.0 mi NNW 4.6 mph - N/A   Mostly Cloudy
5:41 AM 68.0 °F 66.2 °F 94% 30.13 in 10.0 mi North 4.6 mph - N/A   Mostly Cloudy
5:53 AM 68.0 °F 66.9 °F 96% 30.13 in 10.0 mi NNW 3.5 mph - N/A   Overcast
6:09 AM 68.0 °F 66.2 °F 94% 30.14 in 10.0 mi NNW 4.6 mph - N/A   Overcast
6:53 AM 68.0 °F 66.9 °F 96% 30.14 in 10.0 mi NW 9.2 mph - N/A   Mostly Cloudy
8:53 AM 69.1 °F 66.9 °F 93% 30.18 in 9.0 mi NNW 11.5 mph - N/A   Overcast
9:09 AM 69.8 °F 66.2 °F 88% 30.18 in 10.0 mi NNW 12.7 mph - N/A   Mostly Cloudy
9:17 AM 69.8 °F 66.2 °F 88% 30.18 in 10.0 mi NNW 11.5 mph - N/A   Mostly Cloudy
9:48 AM 69.8 °F 66.2 °F 88% 30.19 in 10.0 mi NNW 11.5 mph - N/A   Overcast
9:53 AM 70.0 °F 66.0 °F 87% 30.18 in 10.0 mi NNW 11.5 mph - N/A   Mostly Cloudy
10:09 AM 71.6 °F 64.4 °F 78% 30.19 in 10.0 mi NNW 11.5 mph - N/A   Scattered Clouds
10:27 AM 73.4 °F 66.2 °F 78% 30.18 in 10.0 mi North 8.1 mph - N/A   Mostly Cloudy
10:53 AM 73.9 °F 66.0 °F 76% 30.18 in 10.0 mi North 9.2 mph - N/A   Scattered Clouds
11:36 AM 73.4 °F 66.2 °F 78% 30.16 in 10.0 mi North 10.4 mph - N/A   Mostly Cloudy
11:53 AM 73.0 °F 64.9 °F 76% 30.15 in 10.0 mi North 9.2 mph - N/A   Overcast
12:53 PM 75.9 °F 64.9 °F 69% 30.12 in 10.0 mi NNW 8.1 mph - N/A   Overcast
1:18 PM 77.0 °F 64.4 °F 65% 30.10 in 10.0 mi NNW 11.5 mph - N/A   Scattered Clouds
1:53 PM 78.1 °F 64.0 °F 62% 30.08 in 10.0 mi NW 11.5 mph 18.4 mph N/A   Partly Cloudy
2:53 PM 77.0 °F 62.1 °F 60% 30.06 in 10.0 mi NW 12.7 mph - N/A   Scattered Clouds
3:53 PM 77.0 °F 61.0 °F 58% 30.05 in 9.0 mi North 9.2 mph - N/A   Scattered Clouds
4:53 PM 73.0 °F 63.0 °F 71% 30.05 in 10.0 mi NE 8.1 mph - N/A   Clear
5:53 PM 68.0 °F 61.0 °F 78% 30.05 in 10.0 mi NE 8.1 mph - N/A   Clear
6:53 PM 66.0 °F 61.0 °F 84% 30.06 in 10.0 mi ENE 4.6 mph - N/A   Clear
7:53 PM 64.0 °F 60.1 °F 87% 30.07 in 10.0 mi ENE 4.6 mph - N/A   Clear
8:53 PM 62.1 °F 60.1 °F 93% 30.07 in 10.0 mi ENE 4.6 mph - N/A   Clear
9:53 PM 63.0 °F 60.1 °F 90% 30.07 in 10.0 mi ENE 4.6 mph - N/A   Clear
10:53 PM 60.1 °F 59.0 °F 96% 30.06 in 10.0 mi Calm Calm - N/A   Clear
11:53 PM 57.9 °F 57.0 °F 97% 30.04 in 9.0 mi Calm Calm - N/A   Clear